Location: Bun Machan
(52.1403°N, 7.3744°W)
Time: 01:26:39
(UTC+00:00)

X-37B - Pass Details

Date: 25 June 2021
Orbit: 383 x 392 km, 45.0° (Epoch: 01 July)

Event Time Altitude Azimuth Distance (km) Brightness Sun altitude
Rises 21:43:49 0° 229° (SW) 2,252 4.4 -6.0°
Reaches altitude 10° 21:46:20 10° 208° (SSW) 1,400 3.2 -6.3°
Maximum altitude 21:48:29 17° 165° (SSE) 1,054 2.2 -6.5°
Drops below altitude 10° 21:50:39 10° 121° (ESE) 1,402 2.8 -6.7°
Enters shadow 21:51:45 - 110° (ESE) 1,750 3.4 -6.8°
